Torna al catalogo

HULIANWANG DIGUI-77

AttivoComunicazioniLEO
NORAD 65309·PAYLOAD·🇨🇳 China

Lanciato Aug 25, 2025 da Wenchang Space Launch Site

Loading…

Prossimi Passaggi (prossime 24 ore)

TLE

AggiornatoSource: Space-Track

Epoca: Sep 14, 2026, 22:02 UTC

1 65309U 25187E   26257.91847110 -.00000095  00000-0  63564-4 0  9992
2 65309  50.0031 244.1899 0000863 340.2731  19.8107 13.29326469 51634

Traccia HULIANWANG DIGUI-77 in tempo reale con AllMySat

Download on the App Store